Showing default

FOSSASAT2E24, 66780

Orbit data source: Space-Track

FOSSASAT2E24, 66780 is a Spanish payload satellite in SSO that was launched on Fri, 28 Nov 2025 UTC via an FALCON 9 launch vehicle from the Air Force Western Test Range (AFWTR). Payload-class satellites include a variety of spacecraft equipped with specific instruments for various scientific and technological missions. These include communications satellites like Starlink; space stations such as the ISS; scientific satellites like the Hubble; Earth observation satellites from companies like Planet Labs, Umbra, and HawkEye 360; GPS; miniature CubeSats for education and research; and military/defense satellites.

Loading next visibility...
Identifier
66780, 2025-276DV
Orbit
SSO
Country
Flag of ESES / SPN
Related business
Manufacturer
Fossa Systems
Mission
Operational Commercial Communications
Bus & Motor
CUBESAT 3U, Unknown motor
Mass
4 kg wet, 4 kg dry
Launch date (UTC)
2025-11-28 (6 months ago)
Launch vehicle
FALCON 9
Launch site
Air Force Western Test Range (AFWTR)
Object type
Payload
Rocket body
Debris
Shape & HBR
Box + 2 Pan, 0.1 m
Radar Cross Section
0.035 m², Medium (>0.1 m² and < 1m²)

Expand to show TLE details & history
Last TLE update: 1 week ago

TLE from 1 week ago
0 FOSSASAT2E24
1 66780U 25276DV  26153.65115321  .00003955  00000-0  19342-3 0  9994
2 66780  97.4176 227.2270 0004857 162.5112 197.6291 15.18782528 28201
Epoch: 2026-06-02T15:37Z
TLE epoch observation values (Epoch: 2026-06-02T15:37:39.637Z)
Latitude
0.00003°
Longitude
101.69078°
Altitude
515.796 km
Speed
7.604 km/s
True Right ascension
15h 08m 54s
True Declination
0° 00' 00"
Sunlit
Object was in full shadow at epoch
Visualization orbit readout
Latitude
Unknown
Longitude
Unknown
Altitude
Unknown
Speed
Unknown
Apparent Right ascension
Unknown
Apparent Declination
Unknown
Sunlit
N/A
Visualization observer readout
Local Sidereal Time
00:26:56
Azimuth
Unknown
Elevation
Unknown
Doppler factor
Unknown
Orbital elements
Apogee altitude
509.831 km
Perigee altitude
503.143 km
Semi-major axis
6,884.624 km
Eccentricity
0.00049
Inclination
97.4176°
RAAN
227.227°
Arg. of periapsis
162.5112°
True anomaly
197.61225°
Mean anomaly
197.6291°
Eccentric anomaly
197.62068°
Mean motion
3.79947 °/min
Orbital period
94.75 mins
BSTAR
0.00019342
Loading maneuver chart data...
Computing Atmospheric mass density...
Loading historical data...
Loading historical data...
Loading historical data...
Loading historical data...
Loading historical data...
Loading historical data...
Loading historical data...

Documentation

Showing up to 5 results
|